Regional Weather Roundup
Issued by NWS

Home | Current Version | Previous Version | Text Only | Print | Product List | Glossary Off
Versions: 1 2 3 4 5 6 7 8 9 10 11 12 13 14 15 16 17 18 19 20 21 22 23 24 25 26 27 28 29 30 31 32 33 34 35 36 37 38 39 40 41 42 43 44 45 46 47 48 49 50

000
ASUS43 KDTX 270501
RWRMI
MICHIGAN HOURLY REGIONAL WEATHER ROUNDUP
NATIONAL WEATHER SERVICE DETROIT/PONTIAC MI
100 AM EDT FRI MAY 27 2016

NOTE: "FAIR" INDICATES FEW OR NO CLOUDS BELOW 12,000 FEET WITH NO
SIGNIFICANT WEATHER AND/OR OBSTRUCTION TO VISIBILITY.

MIZ047>049-052>055-059>063-066>070-074>076-081>083-270600-
SOUTHEAST LOWER MICHIGAN

CITY           SKY/WX    TMP DP  RH WIND       PRES   REMARKS
ADRIAN         PTCLDY    70  62  76 SW5       29.95F
ALMA           PTCLDY    65  64  97 SW3       29.92R FOG
ANN ARBOR      FOG       64  64 100 CALM      29.94S VSB 1
BAD AXE        CLOUDY    67  65  93 S3        29.91F
CARO           PTCLDY    64  63  95 CALM      29.91S
DETROIT CITY   PTCLDY    75  64  68 SW7       29.93F
DETROIT        CLOUDY    72  65  78 S7        29.94S
FLINT          CLEAR     72  62  71 SW3       29.92F
GROSSE ILE     PTCLDY    70  66  88 S8        29.94R
HILLSDALE      PTCLDY    68  58  70 S5        29.96R
HOWELL         CLEAR     70  60  70 CALM      29.94S

CITY           SKY/WX    TMP DP  RH WIND       PRES   REMARKS
JACKSON        CLOUDY    67  62  84 S5        29.94S
LAMBERTVILLE   CLOUDY    73  65  78 S3        29.96S
LANSING        PTCLDY    69  62  78 S3        29.92F
LAPEER         FAIR      72  64  75 SW3       29.92F
MASON          CLOUDY    67  59  74 CALM      29.93F
MONROE         CLOUDY    72  66  82 S13       29.94S
MT. CLEMENS    PTCLDY    68  66  93 S6        29.91F
PONTIAC        CLOUDY    73  63  70 SW3       29.93S
PORT HOPE        N/A     69  66  90 SW3       29.89F
PORT HURON     CLOUDY    68  64  88 SW3       29.93S
TRI CITIES     MOCLDY    72  64  76 SW5       29.91S
MIDLAND        FAIR      65  65  98 CALM      29.89F
TROY           PTCLDY    77  63  61 SW6       29.95S
SAGINAW HB     CLEAR     66  63  88 S5        29.90F
$$
MIZ043>046-050>051-056>058-064>065-071>073-077>080-270600-
SOUTHWEST LOWER MICHIGAN

CITY           SKY/WX    TMP DP  RH WIND       PRES   REMARKS
BATTLE CREEK   CLEAR     65  60  84 CALM      29.94S
BENTON HARBOR  MOCLDY    70  63  78 S5        29.91S
BIG RAPIDS     PTCLDY    62  60  96 CALM      29.91S
COLDWATER      PTCLDY    70  61  72 SW5       29.95R
FREMONT        FAIR      63  63 100 CALM      29.90R
HOLLAND        CLOUDY    67  61  81 CALM      29.91S
GRAND RAPIDS   CLOUDY    67  62  84 SE7       29.91S
IONIA          FAIR      66  60  82 CALM      29.91R
KALAMAZOO      CLEAR     67  61  81 S5        29.94R
LUDINGTON      CLOUDY    64  61  89 CALM      29.90R
MARSHALL       CLOUDY    65  61  85 CALM      29.93S
MOUNT PLEASANT CLOUDY    64  63  95 W3        29.90S
MUSKEGON       CLOUDY    66  59  78 CALM      29.90S
SOUTH HAVEN    MOCLDY    66  64  91 CALM      29.92S
$$
MIZ016>042-270600-
NORTHERN LOWER MICHIGAN

CITY           SKY/WX    TMP DP  RH WIND       PRES   REMARKS
ALPENA         CLOUDY    61  60  97 CALM      29.89S
BEAVER ISLAND  FOG       53  53 100 CALM      29.89F VSB<1/4
BELLAIRE         N/A     59  57  94 CALM      29.90S FOG
CADILLAC       CLEAR     59  56  91 CALM      29.92S
CHARLEVOIX     FOG       54  54 100 CALM      29.93F VSB 1/4
FRANKFORT      CLEAR     57  56  97 CALM      29.89S FOG
GAYLORD        CLOUDY    61  59  93 CALM      29.91S
GRAYLING       CLOUDY    60  59  96 CALM      29.91F
HARBOR SPRINGS FOG       53  53  99 SW5       29.91S VSB 1/4
HOUGHTON LAKE  CLOUDY    61  59  93 CALM      29.91F
MANISTEE       CLOUDY    61  55  82 CALM      29.90S
OSCODA         CLOUDY    67  65  91 SW3       29.89S
PELLSTON       CLOUDY    58  56  93 CALM      29.90S
ROGERS CITY    CLOUDY    60  58  92 N7        29.90R FOG
TRAVERSE CITY  CLEAR     66  61  84 SW3       29.88S
$$
MIZ007>008-015-270600-
EASTERN UPPER MICHIGAN

CITY           SKY/WX    TMP DP  RH WIND       PRES   REMARKS
KINROSS          N/A     57  57 100 W6        29.89S VSB 1/2
MACKINAC ISLAN FOG       53  53 100 W6        29.88F VSB 1/4
NEWBERRY       FOG       53  52  97 CALM      29.89S VSB 1/4
S. S. MARIE    FOG       57  56  96 W7        29.88R VSB 1/4
MUNISING         N/A     57  57 100 S5        29.86S
$$
MIZ004>006-011>014-085-270600-
CENTRAL UPPER MICHIGAN

CITY           SKY/WX    TMP DP  RH WIND       PRES   REMARKS
MANISTIQUE     FOG       51  51  97 CALM      29.88S VSB 1/4
ESCANABA       CLEAR     55  54  94 CALM      29.87F
MENOMINEE      CLEAR     57  55  94 CALM      29.85F
SAWYER-GWINN   PTCLDY    59  57  94 S7        29.87F
$$
MIZ001>003-009>011-084-270600-
WESTERN UPPER MICHIGAN

CITY           SKY/WX    TMP DP  RH WIND       PRES   REMARKS
IRON MOUNTAIN  PTCLDY    63  61  93 CALM      29.85F
HOUGHTON       FOG       51  49  92 E3        29.83R VSB 1/4
COPPER HARBOR    N/A     52  52 100 VRB6      29.83S
IRONWOOD       CLOUDY    57  57 100 CALM      29.81S VSB 3/4
$$

ABBREVIATIONS USED IN REMARKS
   TC - TEMPERATURE IN CELSIUS
  WCI - WIND CHILL INDEX
   HX - HEAT INDEX
  VSB - VISIBILITY





USA.gov is the U.S. government's official web portal to all federal, state and local government web resources and services.